Annapolis Naval Academy, MD

1:04 PM EDT on June 25, 2017 (GMT -0400)
Annapolis Naval Academy

Weather History for KNAK - May, 2014

Change the Weather History Date:

Saturday, May 17, 2014

  Actual Average (KBWI) Record (KBWI)
Temperature  
Mean Temperature 60 °F -  
Max Temperature 66 °F 76 °F 93 °F (1896)
Min Temperature 53 °F 52 °F 33 °F (1956)
Degree Days  
Heating Degree Days 6    
Growing Degree Days 10 (Base 50)    
Moisture  
Dew Point 42 °F    
Average Humidity 53    
Maximum Humidity 74    
Minimum Humidity 33    
Precipitation  
Precipitation 0.00 in - - ()
Sea Level Pressure  
Sea Level Pressure 30.07 in    
Wind  
Wind Speed 8 mph (NW)    
Max Wind Speed 14 mph    
Max Gust Speed -    
Visibility 10 miles    
Events      
Averages and records for this station are not official NWS values.
T = Trace of Precipitation, MM = Missing Value Source: NWS Daily Summary

Daily Weather History Graph

Daily Weather History Graph

Search for Another Location

Airport or City:

Trip Planner

Search our weather history database for the weather conditions in past years. The results will help you decide how hot, cold, wet, or windy it might be!

Date:

Astronomy

May. 17, 2014 Rise Set
Actual Time 5:51 AM EDT 8:13 PM EDT
Civil Twilight 5:21 AM EDT 8:43 PM EDT
Nautical Twilight 4:44 AM EDT 9:21 PM EDT
Astronomical Twilight 4:02 AM EDT 10:02 PM EDT
Moon 11:12 PM EDT (5/17) 8:31 AM EDT (5/17)
Length of Visible Light 15h 22m
Length of Day
14h 22m
Waning Gibbous, 89% of the Moon is Illuminated
May 17
Waning Gibbous
May 21
Last Quarter
May 28
New
Jun 5
First Quarter
Jun 13
Full

Hourly Weather History & Observations

Time (EDT) Temp. Dew Point Humidity Pressure Visibility Wind Dir Wind Speed Gust Speed Precip Events Conditions
12:54 AM 61.0 °F 46.0 °F 58% 29.95 in 10.0 mi NNW 13.8 mph - N/A   Overcast
1:54 AM 60.1 °F 43.0 °F 53% 29.95 in 10.0 mi NNW 10.4 mph - N/A   Partly Cloudy
2:54 AM 59.0 °F 44.1 °F 58% 29.96 in 10.0 mi NNW 10.4 mph - N/A   Mostly Cloudy
3:54 AM 57.9 °F 43.0 °F 58% 29.97 in 10.0 mi NW 8.1 mph - N/A   Scattered Clouds
4:54 AM 54.0 °F 41.0 °F 62% 29.99 in 10.0 mi West 5.8 mph - N/A   Clear
5:54 AM 53.1 °F 42.1 °F 66% 30.02 in 10.0 mi West 5.8 mph - N/A   Clear
6:54 AM 54.0 °F 43.0 °F 66% 30.04 in 10.0 mi WNW 5.8 mph - N/A   Clear
7:54 AM 55.9 °F 43.0 °F 62% 30.06 in 10.0 mi West 3.5 mph - N/A   Mostly Cloudy
8:54 AM 57.9 °F 43.0 °F 58% 30.08 in 10.0 mi NW 9.2 mph - N/A   Overcast
9:54 AM 60.1 °F 43.0 °F 53% 30.09 in 10.0 mi NW 9.2 mph - N/A   Clear
10:54 AM 61.0 °F 43.0 °F 52% 30.10 in 10.0 mi NW 8.1 mph - N/A   Mostly Cloudy
11:54 AM 62.1 °F 43.0 °F 50% 30.09 in 10.0 mi NNW 8.1 mph - N/A   Mostly Cloudy
12:54 PM 62.1 °F 44.1 °F 52% 30.10 in 10.0 mi NW 6.9 mph - N/A   Overcast
1:54 PM 63.0 °F 39.9 °F 43% 30.09 in 10.0 mi Variable 5.8 mph - N/A   Mostly Cloudy
2:54 PM 64.0 °F 39.0 °F 40% 30.09 in 10.0 mi NW 4.6 mph - N/A   Mostly Cloudy
3:54 PM 66.0 °F 37.0 °F 34% 30.08 in 10.0 mi NNW 9.2 mph - N/A   Mostly Cloudy
4:54 PM 66.0 °F 39.0 °F 37% 30.09 in 10.0 mi NW 8.1 mph - N/A   Mostly Cloudy
5:54 PM 66.0 °F 37.9 °F 36% 30.09 in 10.0 mi NNW 6.9 mph - N/A   Mostly Cloudy
6:54 PM 64.9 °F 35.1 °F 33% 30.10 in 10.0 mi West 8.1 mph - N/A   Clear
7:54 PM 64.9 °F 37.9 °F 37% 30.12 in 10.0 mi WNW 4.6 mph - N/A   Clear
8:54 PM 61.0 °F 41.0 °F 48% 30.13 in 10.0 mi Calm Calm - N/A   Clear
9:54 PM 57.9 °F 46.0 °F 65% 30.15 in 10.0 mi Calm Calm - N/A   Mostly Cloudy
10:54 PM 57.0 °F 48.9 °F 74% 30.16 in 10.0 mi Calm Calm - N/A   Overcast
11:54 PM 57.9 °F 46.9 °F 67% 30.17 in 10.0 mi Calm Calm - N/A   Overcast